Terminal Aerodrome Forecast
Issued by NWS

Home | Current Version | Previous Version | Text Only | Print | Product List | Glossary On
Versions: 1 2 3 4 5 6 7 8 9 10 11 12 13 14 15 16 17
000
FTUS46 KMTR 242300 RRA
TAFSNS
TAF
KSNS 242341Z 2500/2524 26012G18KT P6SM SCT100
     FM250300 26008KT P6SM OVC015
     FM250800 15004KT P6SM OVC010
     FM251600 15006KT P6SM SCT015 OVC050
     FM251900 15008KT P6SM -SHRA OVC050=

USA.gov is the U.S. government's official web portal to all federal, state and local government web resources and services.